Location: Wald
(31.7579°N, 86.6655°W)
Time: 12:22:45
(UTC+00:00)

Cosmos 2278 Rocket - Pass Details

Date: 14 July 2020
Orbit: 841 x 845 km, 71.0° (Epoch: 08 August)

Event Time Altitude Azimuth Distance (km) Brightness Sun altitude
Rises 01:56:39 0° 354° (N) 3,406 6.0 -12.3°
Reaches altitude 10° 01:59:36 10° 8° (N) 2,467 5.0 -12.8°
Maximum altitude 02:04:06 24° 61° (ENE) 1,682 3.5 -13.6°
Enters shadow 02:06:55 17° 100° (E) 2,023 3.6 -14.1°
